[[{"header":{"parameterUnit":"m.s-1","parameterCategory":1,"la1":30.2991,"la2":30.254,"lo1":-89.0895,"lo2":-89.0444,"dy":0.0017,"dx":0.0017,"nx":28,"ny":28,"refTime":"2024-03-16T03:00:00:Z","depth":0,"parameterNumber":2,"parameterNumberName":"U-component_of_WINDS"},"data":[0,0,0,0,0,0,0,0,0,0,0,0,0,0,0,0,0,0,0,0,0,0,0,0,0,0,0,0,0,0,0,0,0,0,0,0,0,0,0,0,0,0,0,0,0,0,0,0,0,0,0,0,0,0,0,0,0,0,-1.8824,-1.8824,0,-1.8866,-1.8866,-1.8867,-1.8851,-1.885,-1.8849,-1.8848,-1.8891,-1.8893,-1.8895,0,0,0,0,0,0,0,0,0,0,0,0,0,-1.8729,-1.8731,-1.8824,-1.8824,-1.8825,-1.8866,-1.8866,-1.8867,-1.8851,-1.885,-1.8849,-1.8848,-1.889,-1.8892,-1.8895,0,0,0,0,0,0,0,0,0,0,0,0,0,-1.8771,-1.8732,-1.8824,-1.8822,-1.8822,-1.8866,-1.8866,-1.8867,-1.8852,-1.885,-1.8849,-1.8847,-1.8889,-1.8892,-1.8895,-1.8943,0,0,-1.8904,-1.8906,0,0,0,0,0,0,0,0,-1.8768,-1.8774,-1.8822,-1.8822,-1.8822,-1.8852,-1.8849,-1.8893,-1.8852,-1.884,-1.8848,-1.8847,-1.8879,-1.8883,-1.8894,-1.8945,-1.8947,-1.8905,-1.8907,-1.8908,-1.8909,0,0,0,0,0,0,0,-1.8766,-1.8772,-1.884,-1.8822,-1.8823,-1.8819,-1.8823,-1.8857,-1.8867,-1.8841,-1.884,-1.8845,-1.8879,-1.8891,-1.8895,-1.8947,-1.8905,-1.8907,-1.8909,-1.891,-1.904,-1.9041,0,0,0,0,0,0,-1.8763,-1.877,-1.8839,-1.8842,-1.8791,-1.8822,-1.8827,-1.8844,-1.8867,-1.8869,-1.8847,-1.8845,-1.8886,-1.8891,-1.8896,-1.8953,-1.8908,-1.8911,-1.8912,-1.9038,-1.904,-1.9042,0,0,0,0,0,0,-1.8761,-1.8769,-1.8837,-1.8806,-1.8814,-1.8825,-1.8844,-1.8845,-1.8857,-1.8871,-1.8873,-1.8857,-1.8885,-1.8892,-1.8931,-1.8954,-1.8912,-1.8915,-1.9036,-1.9039,-1.9041,-1.9067,0,0,0,0,0,0,-1.8758,-1.8768,-1.8786,-1.8806,-1.8816,-1.8872,-1.8846,-1.8847,-1.8863,-1.886,-1.8881,-1.8883,-1.8885,-1.8927,-1.8934,-1.8957,-1.8917,-1.9034,-1.9037,-1.904,-1.9064,-1.907,-1.9075,0,0,0,0,0,-1.8755,-1.8792,-1.8787,-1.8796,-1.8839,-1.8873,-1.8879,-1.888,-1.8865,-1.8883,-1.8892,-1.8882,-1.8951,-1.8931,-1.8939,-1.8964,-1.9033,-1.9036,-1.904,-1.9061,-1.9069,-1.9075,0,0,0,0,0,0,-1.8774,-1.8794,-1.879,-1.8834,-1.8852,-1.8871,-1.8893,-1.8888,-1.891,-1.8907,-1.8908,-1.8913,-1.8953,-1.8963,-1.894,-1.9011,-1.8989,-1.8995,-1.9003,-1.901,-1.9015,-1.9011,-1.892,0,0,0,0,0,-1.8784,-1.881,-1.8827,-1.8864,-1.8874,-1.8882,-1.8897,-1.8897,-1.8916,-1.8923,-1.8935,-1.8953,-1.8978,-1.8995,-1.9019,-1.9066,-1.907,-1.9087,-1.9092,-1.9097,-1.9101,-1.9126,-1.9134,-1.9054,-1.9054,-1.9053,0,0,-1.8803,-1.8818,-1.8834,-1.8869,-1.8882,-1.891,-1.8889,-1.8918,-1.8938,-1.8927,-1.8965,-1.8975,-1.8995,-1.9038,-1.9058,-1.9047,-1.9124,-1.9102,-1.9105,-1.9107,-1.9131,-1.9138,-1.9145,-1.9056,-1.9056,-1.9055,0,0,-1.8853,-1.8867,-1.8899,-1.8914,-1.8936,-1.8941,-1.8949,-1.8969,-1.8975,-1.9013,-1.9005,-1.903,-1.9074,-1.9089,-1.9102,-1.9159,-1.9151,-1.9167,-1.9194,-1.9219,-1.9225,-1.9231,-1.925,-1.9257,-1.9171,-1.9171,-1.9171,0,-1.8874,-1.8915,-1.8917,-1.8948,-1.8963,-1.8955,-1.8988,-1.9002,-1.9031,-1.9041,-1.9029,-1.9085,-1.9098,-1.9145,-1.9159,-1.917,-1.9179,-1.9163,-1.9224,-1.923,-1.9235,-1.9254,-1.9261,-1.9173,-1.9173,-1.9173,-1.9172,0,-1.894,-1.8968,-1.8993,-1.902,-1.9039,-1.907,-1.9077,-1.9096,-1.9094,-1.9101,-1.9141,-1.9157,-1.9184,-1.9195,-1.9194,-1.9242,-1.9235,-1.9224,-1.9202,-1.9244,-1.9262,-1.9269,-1.9175,-1.9175,-1.9174,-1.9174,0,0,-1.9001,-1.903,-1.9039,-1.9051,-1.9075,-1.9097,-1.9129,-1.9156,-1.9172,-1.9192,-1.9218,-1.9257,-1.9247,-1.9262,-1.9263,-1.9285,-1.9328,-1.9271,-1.9271,-1.928,-1.9381,-1.9388,-1.9396,-1.9324,-1.9325,-1.9326,-1.9379,0,-1.9051,-1.9106,-1.911,-1.916,-1.9186,-1.918,-1.9208,-1.9225,-1.9233,-1.9257,-1.9265,-1.9292,-1.9278,-1.9287,-1.9308,-1.9318,-1.9348,-1.9315,-1.9347,-1.9348,-1.934,-1.9405,-1.9412,-1.9461,-1.9386,-1.9387,-1.9388,0,-1.9116,-1.9139,-1.9192,-1.9212,-1.9223,-1.9248,-1.9273,-1.9296,-1.9316,-1.9321,-1.9338,-1.9337,-1.9369,-1.9348,-1.9392,-1.937,-1.9384,-1.9391,-1.9393,-1.9394,-1.9369,-1.9407,-1.9476,-1.9483,-1.9398,-1.9398,-1.9397,0,-1.9154,-1.9198,-1.9235,-1.9246,-1.9271,-1.9289,-1.93,-1.9319,-1.9335,-1.9358,-1.9368,-1.9394,-1.9408,-1.9429,-1.9434,-1.9418,-1.9479,-1.9457,-1.9482,-1.9482,-1.9494,-1.9492,-1.9565,-1.9506,-1.9506,-1.9505,-1.9505,0,-1.9209,-1.9241,-1.9252,-1.9275,-1.9311,-1.9315,-1.9351,-1.9361,-1.9378,-1.9403,-1.94,-1.9423,-1.9429,-1.9454,-1.9458,-1.9494,-1.9501,-1.9505,-1.9505,-1.9504,-1.9504,-1.9512,-1.9508,-1.9507,-1.9507,-1.9507,-1.9506,0,-1.9256,-1.9265,-1.9305,-1.9326,-1.9332,-1.9357,-1.9375,-1.9397,-1.9405,-1.9436,-1.9444,-1.9457,-1.9485,-1.9493,-1.9528,-1.9531,-1.9573,-1.9571,-1.9566,-1.9565,-1.9589,-1.9586,-1.9668,-1.9679,-1.9614,-1.9615,-1.9615,0,-1.9289,-1.9314,-1.9338,-1.9354,-1.9366,-1.9393,-1.9409,-1.9415,-1.9433,-1.9458,-1.9477,-1.9506,-1.9528,-1.9575,-1.9587,-1.9613,-1.9611,-1.9638,-1.9615,-1.9613,-1.961,-1.9608,-1.961,-1.9642,-1.9642,-1.9643,-1.9643,0,-1.9347,-1.9351,-1.9375,-1.9401,-1.9421,-1.9442,-1.9462,-1.9476,-1.9485,-1.9505,-1.9534,-1.9552,-1.9587,-1.9615,-1.9643,-1.9654,-1.965,-1.9651,-1.9658,-1.9656,-1.9651,-1.9653,-1.9576,-1.9649,-1.9648,-1.9648,-1.9647,-1.9647,-1.9388,-1.9409,-1.9429,-1.9457,-1.9473,-1.9492,-1.9513,-1.9524,-1.9549,-1.9578,-1.9581,-1.9612,-1.9633,-1.9669,-1.9682,-1.9707,-1.9699,-1.9709,-1.9712,-1.9714,-1.9715,-1.9649,-1.9712,-1.9712,-1.9712,-1.9712,-1.9712,0,-1.9445,-1.9458,-1.9483,-1.9511,-1.9533,-1.9528,-1.955,-1.9568,-1.9596,-1.9616,-1.9639,-1.9673,-1.97,-1.9715,-1.9743,-1.976,-1.9759,-1.9767,-1.9765,-1.9768,-1.9721,-1.9712,-1.9767,-1.9767,-1.9767,-1.9767,-1.9767,-1.9767,-1.9477,-1.9513,-1.9519,-1.9563,-1.9576,-1.9607,-1.962,-1.9637,-1.9653,-1.9691,-1.9714,-1.9724,-1.9742,-1.9771,-1.9796,-1.98,-1.9809,-1.9818,-1.9821,-1.9777,-1.9771,-1.9765,-1.9756,-1.982,-1.9821,-1.9865,-1.9865,-1.9865]},{"header":{"parameterUnit":"m.s-1","parameterCategory":1,"la1":30.2991,"la2":30.254,"lo1":-89.0895,"lo2":-89.0444,"dy":0.0017,"dx":0.0017,"nx":28,"ny":28,"refTime":"2024-03-16T03:00:00:Z","depth":0,"parameterNumber":3,"parameterNumberName":"V-component_of_WINDS"},"data":[0,0,0,0,0,0,0,0,0,0,0,0,0,0,0,0,0,0,0,0,0,0,0,0,0,0,0,0,0,0,0,0,0,0,0,0,0,0,0,0,0,0,0,0,0,0,0,0,0,0,0,0,0,0,0,0,0,0,2.6522,2.6522,0,2.6521,2.6521,2.6521,2.6524,2.6524,2.6524,2.6524,2.652,2.652,2.652,0,0,0,0,0,0,0,0,0,0,0,0,0,2.6525,2.6525,2.6522,2.6522,2.6522,2.6521,2.6521,2.6521,2.6524,2.6524,2.6524,2.6524,2.652,2.652,2.652,0,0,0,0,0,0,0,0,0,0,0,0,0,2.6524,2.6525,2.6522,2.6523,2.6524,2.6521,2.6521,2.6521,2.6524,2.6524,2.6524,2.6524,2.652,2.652,2.652,2.6515,0,0,2.6519,2.6518,0,0,0,0,0,0,0,0,2.6524,2.6523,2.6523,2.6523,2.6523,2.6523,2.6521,2.6519,2.6524,2.6524,2.6524,2.6524,2.6521,2.652,2.652,2.6515,2.6514,2.6519,2.6518,2.6518,2.6518,0,0,0,0,0,0,0,2.6524,2.6524,2.6522,2.6523,2.6523,2.6524,2.6524,2.652,2.6521,2.6524,2.6524,2.6524,2.6521,2.652,2.652,2.6514,2.6519,2.6518,2.6518,2.6518,2.6508,2.6508,0,0,0,0,0,0,2.6524,2.6524,2.6522,2.6522,2.6524,2.6523,2.6523,2.6523,2.6521,2.6521,2.6524,2.6524,2.652,2.652,2.6519,2.6515,2.6518,2.6518,2.6518,2.6508,2.6508,2.6508,0,0,0,0,0,0,2.6524,2.6524,2.6522,2.6523,2.6523,2.6523,2.6523,2.6523,2.6522,2.6521,2.6521,2.6523,2.6521,2.652,2.6517,2.6515,2.6518,2.6518,2.6508,2.6508,2.6508,2.6506,0,0,0,0,0,0,2.6524,2.6524,2.6522,2.6523,2.6522,2.6519,2.6522,2.6523,2.6522,2.6522,2.6521,2.6521,2.6521,2.6517,2.6516,2.6515,2.6517,2.6508,2.6508,2.6508,2.6506,2.6506,2.6506,0,0,0,0,0,2.6524,2.652,2.6522,2.6522,2.6521,2.6519,2.6519,2.652,2.6522,2.652,2.652,2.6521,2.6516,2.6517,2.6516,2.6514,2.6508,2.6508,2.6508,2.6507,2.6506,2.6506,0,0,0,0,0,0,2.6518,2.652,2.6522,2.6519,2.6519,2.652,2.6517,2.6519,2.6518,2.6518,2.6519,2.6518,2.6515,2.6514,2.6516,2.6511,2.6512,2.6512,2.6511,2.6511,2.6511,2.6511,2.6517,0,0,0,0,0,2.6516,2.6516,2.6518,2.6515,2.6515,2.6516,2.6516,2.6517,2.6517,2.6516,2.6516,2.6515,2.6514,2.6512,2.651,2.6507,2.6507,2.6505,2.6505,2.6505,2.6504,2.6504,2.6503,2.6507,2.6507,2.6507,0,0,2.6513,2.6514,2.6513,2.6513,2.6514,2.6513,2.6516,2.6515,2.6514,2.6516,2.6513,2.6513,2.6512,2.6509,2.6508,2.6508,2.6503,2.6504,2.6504,2.6504,2.6504,2.6503,2.6503,2.6507,2.6507,2.6507,0,0,2.6506,2.6506,2.6505,2.6506,2.6507,2.6508,2.6508,2.6509,2.651,2.6508,2.651,2.6509,2.6506,2.6506,2.6505,2.6501,2.6502,2.6501,2.6499,2.6498,2.6498,2.6498,2.6498,2.6497,2.65,2.65,2.65,0,2.65,2.65,2.6503,2.6503,2.6503,2.6507,2.6505,2.6506,2.6506,2.6506,2.6507,2.6505,2.6504,2.6502,2.6502,2.6501,2.6501,2.6501,2.6498,2.6498,2.6498,2.6497,2.6497,2.65,2.65,2.65,2.65,0,2.6494,2.6494,2.6493,2.6495,2.6495,2.6494,2.6497,2.6497,2.6499,2.65,2.6499,2.6499,2.6498,2.6498,2.6499,2.6497,2.6497,2.6498,2.6499,2.6497,2.6497,2.6497,2.65,2.65,2.65,2.65,0,0,2.6482,2.6488,2.6487,2.6489,2.6492,2.6492,2.6491,2.6492,2.6493,2.6493,2.6493,2.6492,2.6494,2.6493,2.6494,2.6494,2.6493,2.6495,2.6495,2.6496,2.6492,2.6492,2.6491,2.6494,2.6494,2.6494,2.6493,0,2.6476,2.6476,2.648,2.6479,2.648,2.6485,2.6484,2.6486,2.6488,2.6489,2.649,2.649,2.6492,2.6492,2.6492,2.6493,2.6492,2.6493,2.6494,2.6494,2.6494,2.6491,2.649,2.6489,2.6492,2.6492,2.6492,0,2.6468,2.6471,2.6471,2.6476,2.6476,2.6476,2.6479,2.6479,2.6481,2.6483,2.6484,2.6486,2.6486,2.6488,2.6489,2.6489,2.649,2.6491,2.6491,2.6491,2.6493,2.6492,2.6488,2.6489,2.6492,2.6492,2.6492,0,2.646,2.6463,2.6464,2.6466,2.6471,2.6471,2.6474,2.6477,2.6478,2.648,2.6481,2.6482,2.6483,2.6484,2.6487,2.6487,2.6487,2.6489,2.6489,2.6489,2.6488,2.6488,2.6486,2.6488,2.6488,2.6488,2.6488,0,2.6453,2.6453,2.6461,2.6462,2.6462,2.6467,2.6467,2.647,2.6473,2.6474,2.6477,2.6478,2.6482,2.6483,2.6485,2.6486,2.6486,2.6488,2.6488,2.6487,2.6487,2.6488,2.6488,2.6488,2.6488,2.6488,2.6488,0,2.6444,2.6449,2.6451,2.6457,2.6459,2.6459,2.6464,2.6465,2.6468,2.647,2.647,2.6475,2.6477,2.648,2.6482,2.6484,2.6485,2.6486,2.6485,2.6485,2.6485,2.6485,2.6483,2.6483,2.6485,2.6485,2.6485,0,2.6439,2.6439,2.6447,2.6449,2.6452,2.6454,2.6456,2.6461,2.6463,2.6468,2.6468,2.6471,2.6474,2.6477,2.648,2.6482,2.6484,2.6483,2.6484,2.6484,2.6485,2.6485,2.6485,2.6482,2.6482,2.6482,2.6482,0,2.643,2.6434,2.6437,2.6442,2.6445,2.6448,2.6452,2.6453,2.646,2.6462,2.6465,2.6467,2.6471,2.6474,2.6478,2.6479,2.6482,2.6482,2.6482,2.6481,2.6481,2.6483,2.6484,2.6482,2.6482,2.6482,2.6482,2.6482,2.6424,2.6425,2.6431,2.6435,2.644,2.6444,2.6446,2.645,2.6453,2.6458,2.6461,2.6464,2.6469,2.6474,2.6476,2.6479,2.648,2.648,2.648,2.648,2.648,2.6481,2.6479,2.6479,2.6479,2.6479,2.6479,0,2.6416,2.6421,2.6425,2.6431,2.6435,2.6439,2.6444,2.6446,2.645,2.6454,2.6458,2.6463,2.6466,2.6471,2.6475,2.6476,2.6478,2.6477,2.6477,2.6478,2.6479,2.6479,2.6476,2.6476,2.6476,2.6476,2.6476,2.6476,2.6412,2.6416,2.642,2.6426,2.6431,2.6435,2.6438,2.6442,2.6446,2.6452,2.6456,2.6459,2.6464,2.6469,2.6473,2.6474,2.6476,2.6475,2.6477,2.6477,2.6478,2.6478,2.6478,2.6476,2.6476,2.6476,2.6476,2.6476]}]]